GFSSGP_700_temp_273.txt.gz
Temp
15 15 15 16 15 15 16 16 16 15 15 14 14 14 14 14 13 13 13 12 12 11 11 11 10 10 10 10 9 9 9 9 9 9 9 9 9 9 8 8 9 9 9 9 8 8 8 8 8
15 16 16 15 16 16 16 16 15 15 14 14 14 13 14 14 14 14 13 12 11 12 11 11 11 10 10 10 10 9 9 9 9 9 9 9 9 9 9 9 9 9 9 9 9 9 8 8 8
16 15 14 15 17 17 15 14 15 15 14 14 14 13 13 13 13 14 13 11 11 11 11 11 11 10 10 10 10 10 9 9 9 9 9 9 9 9 9 9 9 9 9 9 9 9 8 8 8
17 15 15 17 16 15 15 14 13 15 15 14 14 13 13 12 14 13 12 12 12 11 11 11 11 11 10 10 10 10 9 9 9 9 9 9 9 9 9 8 8 8 9 9 9 9 9 9 8
16 16 16 17 16 16 15 15 16 15 14 14 14 11 11 11 12 13 13 12 12 12 11 11 11 11 10 10 10 10 10 9 9 9 9 9 9 9 9 9 9 9 8 8 8 9 9 9 8
14 15 16 16 16 16 15 16 15 15 14 14 14 13 11 11 12 13 13 12 12 12 11 11 11 10 10 10 10 10 10 10 9 9 9 9 9 9 9 9 9 9 8 8 8 8 8 8 8
15 15 17 18 16 14 12 13 14 14 13 14 14 14 12 11 11 11 13 12 12 11 11 11 11 10 10 10 10 10 10 9 9 9 9 9 9 8 8 8 9 9 8 8 8 8 8 8 8
17 17 18 18 17 14 15 13 15 15 14 12 14 14 13 12 10 9 10 11 11 11 11 11 11 10 10 10 10 10 9 9 9 9 9 9 9 8 8 8 9 9 9 9 8 8 8 8 8
18 18 18 17 17 16 16 15 15 15 15 14 14 14 13 12 9 9 9 10 11 10 11 11 11 11 10 10 10 10 10 10 10 9 9 9 8 8 8 8 8 9 9 9 9 9 8 8 8
18 18 18 18 17 17 17 17 16 14 14 13 13 13 12 11 9 9 9 10 12 11 11 11 11 11 10 10 10 10 10 10 10 9 9 9 8 8 8 8 9 9 9 9 9 9 9 8 8
18 18 18 18 18 17 16 16 16 15 13 14 14 14 12 10 10 10 9 10 11 11 11 10 10 11 10 10 10 10 10 10 10 9 9 10 9 9 8 9 9 9 9 9 9 9 8 8 8
19 19 19 18 18 18 17 16 15 16 14 14 13 12 11 10 10 10 10 9 10 10 11 12 11 11 11 11 10 10 10 10 10 9 9 9 9 9 9 9 10 10 9 9 9 8 9 9 9
19 19 19 19 18 18 17 16 16 15 13 13 14 12 11 10 10 10 10 10 10 9 8 9 10 11 10 10 10 10 12 11 9 10 9 9 9 9 9 9 9 10 9 10 9 9 9 8 8
19 18 19 19 19 18 18 16 16 14 13 14 13 12 12 12 11 11 10 10 10 10 9 8 9 10 9 10 10 10 10 10 10 10 10 10 10 9 9 9 10 10 9 9 9 9 9 8 8
18 18 19 19 19 18 18 17 17 15 11 13 13 12 12 12 12 11 11 10 10 10 10 9 9 9 9 9 10 10 9 9 10 11 10 10 10 10 10 9 9 9 10 10 9 10 10 9 9
18 19 19 19 19 19 19 17 17 15 14 14 14 12 12 12 12 12 11 11 11 11 10 9 10 10 9 9 10 9 9 9 9 10 10 9 9 10 10 10 9 9 9 9 9 9 9 9 9
18 19 19 18 19 19 19 18 18 17 16 15 15 13 13 12 11 12 12 11 11 11 10 10 10 10 10 10 9 9 9 9 9 9 8 9 8 8 9 9 10 10 9 9 9 9 9 9 9
18 18 18 18 19 19 19 18 18 17 16 15 16 15 15 13 12 12 12 12 11 11 11 11 11 10 10 10 10 9 10 10 10 10 9 8 9 9 8 9 9 9 9 9 9 9 9 9 9
18 17 19 19 19 19 19 19 18 17 17 16 17 17 17 13 13 12 12 13 11 11 11 11 11 11 10 10 10 10 10 10 10 10 9 8 8 8 9 9 9 9 9 9 9 9 10 9 9
18 17 17 18 19 19 19 19 18 17 18 17 17 17 16 16 13 12 13 14 13 12 11 11 11 11 11 10 10 10 10 10 9 10 9 9 8 9 10 9 9 9 9 9 9 9 10 9 9
18 18 18 18 19 19 19 19 18 17 17 17 17 15 16 15 14 13 13 13 13 13 12 11 11 11 11 11 10 10 10 10 10 10 9 8 9 9 9 9 9 9 9 9 9 9 9 9 9
18 18 18 19 19 19 19 18 19 19 18 18 17 16 15 14 13 13 13 13 13 14 13 12 12 11 11 11 10 10 10 10 10 10 10 9 9 8 9 9 9 9 9 9 9 10 10 9 10
18 17 18 19 19 19 20 19 19 19 18 18 17 17 15 12 12 13 13 13 13 14 13 13 12 12 11 11 11 11 10 11 10 10 9 9 8 10 9 8 10 9 9 9 9 10 10 10 9
19 18 18 19 19 17 16 18 17 18 19 18 17 17 15 13 13 13 14 13 13 14 13 13 12 12 12 11 12 11 11 11 10 10 9 8 9 10 10 9 9 9 10 10 10 10 10 10 10
19 17 17 14 14 14 17 16 18 18 18 18 18 17 16 15 15 14 14 13 14 14 14 13 13 13 12 12 12 11 11 11 10 10 9 10 10 10 10 9 10 10 10 10 10 10 10 10 10
19 19 18 15 12 15 18 16 18 18 18 18 18 17 16 16 15 15 15 14 14 14 14 14 13 13 12 12 11 11 11 11 11 11 10 10 10 10 10 11 11 11 10 10 10 10 9 10 9
18 18 19 17 16 17 17 16 17 18 18 18 18 17 16 16 15 15 15 14 14 14 14 13 13 13 13 12 11 11 11 11 11 11 10 10 9 9 10 10 11 11 11 11 11 11 10 8 9
18 18 18 18 13 14 17 17 17 17 17 18 18 17 16 16 15 15 15 15 14 14 14 13 13 13 12 12 11 11 10 10 10 10 9 9 9 9 10 10 10 10 10 11 11 11 10 10 9
18 18 18 18 17 14 13 15 16 17 18 18 17 17 16 16 15 14 14 15 15 14 14 13 13 12 12 12 11 10 11 10 10 10 9 9 9 9 9 9 9 10 10 10 10 10 10 10 9
19 18 18 17 18 19 17 15 16 17 16 17 17 17 16 16 14 14 14 14 14 14 14 13 13 13 11 11 11 10 10 10 10 10 10 9 9 9 9 9 9 9 10 10 10 10 10 10 10

GFSSGP_700_temp_279.txt.gz
Temp
14 14 14 15 15 14 13 13 14 14 14 13 13 12 13 13 13 13 13 12 11 10 10 10 10 9 10 10 9 9 10 9 9 9 9 9 9 9 9 9 9 9 9 9 9 9 9 9 9
14 14 15 15 15 15 13 14 14 14 14 14 13 13 13 13 13 13 13 12 11 10 10 10 10 10 10 10 9 9 9 9 9 9 9 9 9 9 9 9 9 9 9 9 9 9 9 9 9
15 15 15 14 14 14 13 14 14 14 14 14 14 13 13 13 13 13 12 12 11 11 10 10 10 10 10 10 9 9 9 9 9 9 9 9 9 9 9 9 9 9 9 9 9 9 9 9 9
15 15 15 14 14 13 13 14 14 13 14 13 13 14 13 13 13 13 12 12 11 11 10 10 10 10 10 10 10 9 9 9 9 9 9 9 8 8 8 9 9 9 9 9 9 9 9 9 9
15 15 15 15 14 14 13 14 14 13 14 14 13 13 13 11 12 12 12 12 11 11 11 10 10 10 10 10 10 10 9 9 9 9 9 9 9 9 8 8 9 9 9 9 9 9 9 8 9
15 15 15 15 15 14 14 13 13 13 14 14 13 14 13 12 11 12 12 11 11 11 11 10 10 10 10 10 10 9 9 9 9 9 9 9 9 9 8 8 8 8 8 8 8 9 9 9 9
15 15 15 15 15 14 14 14 14 14 14 14 13 13 13 12 11 11 11 11 11 10 10 10 10 10 10 10 10 9 9 9 9 9 9 9 8 8 8 8 8 8 8 8 8 8 8 8 8
16 15 15 15 16 15 15 15 14 15 14 14 13 12 13 12 11 11 11 11 10 10 10 10 10 10 10 10 10 10 9 9 9 9 9 8 8 8 8 8 8 8 8 8 8 8 8 8 8
16 16 15 16 16 16 15 16 14 13 14 13 13 12 12 12 11 11 11 11 10 11 10 10 10 10 10 10 10 9 9 9 9 9 8 8 8 7 7 7 7 7 8 8 8 8 8 8 8
16 16 17 17 17 16 16 16 15 15 14 13 13 12 12 12 11 11 11 11 11 11 10 10 10 10 10 10 10 10 9 9 9 9 8 8 8 7 8 8 8 8 8 8 8 8 8 8 8
16 17 18 18 17 16 17 16 15 15 14 13 12 13 13 12 11 10 10 10 11 10 10 10 10 10 10 10 10 9 9 9 9 9 8 8 8 7 8 8 8 8 8 8 8 8 8 8 8
17 18 18 18 18 16 17 17 16 15 15 14 14 13 13 12 12 11 11 11 10 10 10 10 10 10 10 10 9 9 9 9 9 9 8 8 8 8 8 8 8 8 8 8 8 8 8 8 8
16 16 17 17 18 16 16 17 16 16 15 14 14 14 13 13 12 11 10 10 10 10 10 10 10 10 10 9 9 9 9 9 9 9 8 8 8 8 8 8 8 8 8 8 8 8 8 8 8
16 16 18 17 18 17 16 17 17 17 16 15 15 14 14 12 12 12 12 11 10 9 10 9 9 9 9 9 9 9 9 9 9 9 8 8 8 9 8 8 8 8 8 8 8 8 8 8 8
17 17 17 16 17 17 16 17 17 16 16 15 15 14 13 12 12 12 11 11 9 9 8 9 9 10 10 9 9 9 10 9 9 8 8 8 8 9 8 8 8 8 8 9 8 8 8 8 8
17 17 17 17 17 16 17 18 18 17 16 15 15 15 14 13 12 12 11 10 10 10 8 9 9 9 9 10 10 10 10 9 9 8 8 8 8 8 8 8 8 9 9 9 9 9 9 8 8
16 17 17 17 17 17 17 18 18 17 17 15 15 15 14 13 12 12 11 11 10 10 10 9 9 10 9 9 9 10 9 9 10 10 9 8 8 8 9 9 9 9 9 9 9 9 9 9 8
16 16 17 16 16 16 16 18 17 17 17 16 15 15 15 13 13 11 12 11 10 10 10 10 10 10 9 9 10 9 9 9 9 9 9 8 9 9 8 9 9 9 9 9 8 9 9 9 8
16 16 16 17 17 16 17 18 18 17 17 17 16 16 15 14 12 12 12 11 10 10 10 10 10 10 9 9 9 9 9 9 9 9 9 9 9 9 9 9 9 9 9 9 9 9 9 9 9
16 16 16 17 17 18 17 18 17 17 17 17 16 15 15 14 14 13 12 12 11 10 10 11 10 10 10 9 9 9 9 9 9 9 9 9 9 9 9 8 9 9 9 9 9 9 9 9 9
16 16 16 16 17 17 17 18 18 17 17 17 15 14 14 15 15 14 13 12 11 11 10 10 10 10 10 9 9 9 9 9 9 9 9 9 9 9 9 8 8 8 9 9 9 9 9 9 9
16 17 16 16 17 17 17 17 18 18 17 17 16 15 14 15 15 15 14 13 12 11 11 11 10 10 10 11 10 10 10 10 9 9 9 9 9 9 8 9 9 9 8 9 9 9 9 10 10
17 16 16 16 17 17 17 17 19 17 17 17 16 16 15 15 15 15 15 13 12 11 11 11 11 11 11 11 10 10 10 10 10 10 9 9 9 9 9 10 9 10 10 10 10 10 10 10 10
16 16 16 16 17 15 17 17 18 18 18 17 17 17 16 15 15 15 15 13 12 12 12 12 11 11 11 10 11 11 11 11 11 10 10 9 9 9 9 9 10 10 10 10 10 10 10 9 9
16 16 16 15 14 13 16 16 18 18 18 17 17 17 16 15 15 16 15 14 13 13 13 12 12 11 11 11 11 11 11 10 10 10 10 9 9 9 9 9 10 10 10 11 11 10 10 10 9
16 17 16 12 11 14 16 17 18 18 17 17 17 17 16 15 16 16 15 14 13 13 13 12 12 12 12 11 11 11 11 10 10 10 10 9 9 9 9 9 9 10 10 10 10 10 10 10 10
16 16 17 16 14 14 16 17 18 18 17 18 17 17 16 16 16 15 15 14 13 14 13 13 13 12 12 12 12 11 11 10 10 10 10 9 9 9 8 9 9 9 9 10 10 10 10 10 10
16 17 16 16 11 13 15 16 17 18 17 18 18 18 17 16 15 15 14 14 13 14 13 13 13 13 12 12 11 11 10 10 10 10 9 9 8 8 8 9 9 9 9 9 9 9 10 10 10
17 16 16 17 16 12 11 16 18 17 17 17 17 18 18 17 16 14 14 14 15 14 13 13 13 13 12 12 11 10 10 10 9 9 9 8 8 8 9 9 9 9 9 9 9 9 9 9 10
16 17 17 17 15 16 15 17 18 17 17 17 17 18 17 15 15 15 14 14 15 14 13 13 13 13 12 12 11 10 10 10 9 9 8 8 8 8 8 8 8 9 9 9 9 9 9 9 9

GFSSGP_700_temp_285.txt.gz
Temp
15 15 14 14 14 13 13 13 12 12 12 12 12 12 12 12 12 12 12 11 11 10 10 10 10 10 10 10 10 9 9 9 9 9 9 9 8 8 9 9 9 9 9 9 9 9 9 9 9
15 15 15 14 14 14 13 13 13 12 13 12 12 12 12 12 11 12 12 11 10 10 10 10 10 10 10 10 9 9 9 9 9 9 9 9 9 9 9 9 9 9 9 9 9 9 9 9 9
15 15 15 15 14 14 13 13 13 13 12 12 12 12 12 12 11 12 12 12 11 10 10 10 10 10 10 9 9 9 9 9 9 9 9 9 9 9 9 9 9 9 8 9 9 9 9 8 9
15 15 15 15 14 14 13 13 13 13 13 12 12 12 13 12 12 12 12 11 11 10 10 10 10 10 9 9 9 9 9 9 9 9 9 9 9 9 9 9 9 9 9 8 9 9 8 8 8
15 15 15 15 14 14 14 13 13 13 13 12 13 13 13 12 12 11 11 11 11 10 10 10 10 9 9 9 9 9 9 9 9 9 9 9 9 9 9 8 9 9 9 9 9 8 8 8 8
15 15 15 15 15 14 14 14 13 13 13 13 12 13 13 12 11 11 11 11 10 10 10 10 10 9 9 9 9 9 9 9 9 9 9 8 8 8 8 8 8 8 9 9 9 8 8 9 9
15 15 15 15 15 15 14 14 13 13 13 12 12 12 12 12 12 11 11 11 11 10 10 10 10 9 9 9 9 9 9 9 9 8 8 8 8 8 8 8 8 8 8 8 8 8 8 9 9
16 16 15 16 16 15 15 14 14 13 13 12 12 11 12 13 12 11 11 11 11 10 10 10 10 10 9 9 9 9 9 9 9 8 8 7 7 8 8 8 8 8 8 8 8 8 8 8 8
16 16 16 16 16 16 15 14 14 14 13 13 12 11 12 12 13 12 12 12 11 11 10 10 10 10 10 9 9 9 9 9 9 8 8 8 7 7 8 8 8 8 8 8 8 8 8 8 8
16 16 17 16 16 16 16 15 14 14 14 13 12 12 12 12 12 12 11 11 11 11 11 10 10 10 10 10 9 9 9 9 9 9 8 8 8 8 8 8 8 8 8 7 7 8 8 8 8
17 16 17 17 16 15 16 15 14 14 14 13 13 12 12 12 12 11 11 10 10 11 11 10 10 10 10 9 9 9 9 9 9 9 8 8 8 8 8 8 8 8 8 8 8 7 7 8 8
17 17 17 17 17 16 16 15 15 14 14 14 14 13 12 12 12 11 11 11 10 10 10 10 10 10 10 9 9 9 9 9 9 8 8 8 8 8 8 8 8 8 8 8 8 8 8 8 8
17 17 17 17 17 16 16 16 15 14 13 14 14 14 12 11 11 10 10 10 10 10 10 10 10 10 9 9 9 9 9 9 8 8 8 8 8 8 8 8 8 8 8 8 8 8 8 8 8
16 17 18 17 17 16 16 15 15 15 14 13 13 13 13 11 11 11 11 10 10 10 10 10 10 9 9 9 9 9 9 9 9 8 8 8 8 8 8 8 8 8 8 8 8 8 8 8 8
16 17 17 17 17 16 16 16 15 15 14 13 13 13 12 11 11 11 10 10 9 9 10 9 9 9 9 9 9 9 9 9 9 9 8 8 8 8 8 8 8 8 9 9 8 8 8 8 8
16 17 17 17 17 16 16 17 16 16 15 14 14 13 12 12 11 11 10 10 9 9 9 10 9 9 8 8 8 9 9 9 9 8 8 8 8 8 8 8 8 8 9 9 9 9 9 8 8
16 16 16 16 17 16 16 16 16 16 15 15 14 13 12 12 12 11 11 10 10 9 9 9 9 9 8 8 8 9 9 8 8 9 8 8 8 8 9 8 8 9 9 9 9 9 9 9 9
16 16 16 16 16 16 17 17 16 16 15 15 15 14 14 12 12 11 11 10 10 10 9 9 9 9 9 9 9 9 9 9 9 9 9 9 9 9 9 8 9 9 9 9 8 8 9 9 8
15 16 16 16 16 16 16 17 16 16 17 17 16 15 14 14 12 12 11 11 10 10 10 10 9 9 9 9 9 9 9 9 9 9 9 9 9 9 8 8 8 8 8 9 8 8 8 8 9
15 16 16 16 16 16 16 17 18 17 17 17 16 15 14 14 13 12 12 12 11 10 10 10 9 9 9 9 9 9 9 9 9 9 9 9 9 8 8 8 8 8 8 9 9 9 9 9 9
15 15 16 15 16 17 16 17 17 18 18 17 17 16 15 14 14 13 12 12 12 11 10 10 10 9 10 10 10 10 9 10 10 9 9 9 9 9 8 8 9 9 9 10 10 10 10 10 10
15 15 15 15 16 16 16 17 17 18 18 18 18 17 16 15 14 13 13 13 12 12 11 11 10 10 10 10 10 10 10 10 10 9 9 9 8 9 9 9 9 10 10 10 10 10 10 10 10
15 15 15 16 16 15 16 16 17 18 18 18 18 17 17 16 15 14 13 13 12 12 11 11 11 10 10 10 10 10 10 10 10 10 9 9 9 9 9 9 9 10 10 10 10 10 10 10 10
14 14 15 16 16 16 16 16 17 17 17 18 18 18 17 16 15 14 13 13 12 12 12 12 11 11 10 10 10 10 10 9 9 9 10 9 9 9 9 9 9 9 9 10 10 10 10 10 10
14 14 16 16 17 17 16 15 17 17 17 18 18 18 17 16 16 15 14 13 13 13 13 12 12 11 11 10 10 10 10 10 9 9 10 10 9 9 8 9 9 9 9 9 9 9 10 10 10
14 15 16 16 17 17 15 16 17 17 17 18 18 17 17 17 16 16 15 14 14 13 13 13 12 11 11 11 11 10 10 10 9 9 10 10 9 9 8 8 9 9 9 9 9 9 9 9 10
14 14 15 15 15 15 16 17 17 18 18 18 17 17 17 17 17 16 16 15 14 14 12 13 12 12 11 11 11 11 10 10 9 10 10 9 9 8 8 8 9 9 9 9 9 9 9 9 9
15 15 15 15 15 16 16 16 17 17 18 18 18 17 17 17 17 16 15 15 14 13 13 12 12 12 11 11 11 11 10 10 10 10 10 9 9 8 8 8 8 8 9 9 9 9 9 9 9
15 14 15 15 15 17 17 17 17 17 18 18 17 17 17 17 17 16 15 15 14 13 13 13 13 12 12 11 11 10 10 10 10 9 9 9 8 8 8 8 8 8 9 9 9 9 9 9 9
15 15 15 16 15 15 15 17 17 17 17 17 18 17 17 17 17 16 15 15 14 14 13 12 12 11 11 11 10 10 10 9 9 9 9 8 8 8 7 8 7 8 8 8 9 9 9 9 9

GFSSGP_700_temp_291.txt.gz
Temp
15 15 15 15 14 17 17 16 16 16 15 14 13 13 13 12 11 11 11 9 10 11 10 10 10 10 10 10 9 9 9 9 9 9 9 9 9 9 9 9 9 9 9 9 9 9 9 9 9
16 16 16 15 16 18 17 16 15 15 14 13 13 13 12 11 12 12 10 11 11 11 10 10 10 10 10 9 9 9 9 9 9 9 9 9 9 9 9 9 9 9 9 9 9 9 9 9 9
16 16 14 17 18 18 17 16 15 14 14 14 13 13 12 11 10 11 11 11 9 10 10 10 10 10 9 9 9 9 9 9 9 9 9 9 9 9 9 9 9 9 9 9 9 9 9 9 9
16 14 16 18 17 17 17 15 15 15 14 13 13 12 12 10 10 11 11 10 9 8 10 10 10 10 10 9 9 9 9 9 9 9 9 9 9 9 9 9 9 9 9 9 9 9 9 9 8
15 15 18 18 17 16 16 15 15 15 14 14 14 12 12 10 11 12 11 8 8 8 10 10 10 10 10 9 9 9 9 9 9 9 9 9 9 9 9 9 9 9 9 9 9 9 9 9 8
15 17 19 18 17 16 16 15 16 15 14 13 12 11 12 12 12 11 9 8 8 9 10 10 10 10 10 9 9 9 9 9 9 9 9 9 9 9 9 9 9 9 9 9 9 9 9 9 9
17 19 19 18 18 17 16 15 15 15 14 13 13 11 12 12 11 10 8 8 8 8 11 10 10 10 10 10 9 9 9 9 9 9 9 9 9 9 9 9 9 9 9 9 9 9 9 9 9
16 18 19 19 18 16 15 15 15 15 13 13 13 12 11 11 12 9 9 8 8 8 10 11 10 10 10 9 9 9 9 9 9 9 8 8 8 8 8 8 9 9 9 9 9 9 9 9 9
17 18 19 18 18 16 15 15 14 14 13 13 12 13 11 13 11 9 9 9 8 8 8 10 10 10 10 10 9 9 9 9 9 9 9 8 8 9 8 8 8 8 8 9 9 9 9 9 9
18 19 18 18 18 17 16 15 14 14 13 12 12 12 13 12 10 9 9 9 8 8 8 8 8 8 9 9 9 10 10 9 9 9 9 8 9 8 8 8 8 8 8 8 9 9 9 9 9
18 18 18 17 17 17 16 16 15 14 15 14 12 11 13 12 10 9 9 9 9 9 8 8 8 7 9 9 9 10 8 7 9 9 9 9 9 9 9 9 9 8 9 9 9 9 9 9 9
18 18 18 17 17 17 17 16 15 15 14 14 12 12 11 11 10 10 10 9 8 10 8 8 8 10 8 8 10 7 8 7 7 9 9 9 9 9 9 9 9 9 8 9 9 9 9 9 9
18 18 18 17 16 16 16 16 15 14 14 13 14 13 11 10 10 10 10 9 9 11 11 10 10 10 10 10 10 7 7 9 9 8 9 8 8 8 8 8 9 9 9 9 9 9 8 9 9
18 18 17 17 17 16 16 16 16 14 14 15 14 12 11 11 11 10 10 9 10 11 10 10 10 10 10 10 10 10 10 7 9 8 8 9 9 8 8 9 9 9 9 9 9 9 9 9 9
18 18 18 18 17 17 16 16 16 16 15 14 13 12 11 11 11 10 10 9 11 11 10 10 10 10 10 10 10 10 10 9 7 7 9 9 9 8 9 9 9 9 10 10 9 9 9 9 9
18 19 19 18 18 17 17 14 16 15 15 14 13 12 12 11 11 10 10 9 10 10 10 11 10 10 10 10 10 10 10 9 8 8 8 9 9 9 9 9 8 8 9 9 9 9 9 9 9
19 19 20 19 18 18 18 18 16 15 14 14 13 12 12 11 11 10 10 9 10 10 10 10 10 10 10 10 9 9 9 9 9 9 8 9 10 9 9 9 9 9 9 9 8 8 8 9 9
19 20 20 19 18 18 18 19 17 17 15 14 14 13 12 12 11 10 10 9 10 10 10 9 9 9 9 10 10 9 9 9 9 8 9 10 9 9 9 9 8 9 9 9 8 8 8 8 9
20 20 20 19 18 18 19 19 18 17 16 16 15 13 13 12 12 11 10 10 9 10 10 10 9 9 9 9 9 9 9 9 9 9 9 9 9 9 9 9 8 9 9 9 9 9 9 9 9
19 19 20 20 18 18 19 19 19 18 17 16 16 15 13 13 12 12 11 10 10 11 10 10 10 9 9 9 9 8 8 9 9 9 9 9 9 9 9 9 9 10 9 10 10 10 10 9 7
18 19 19 19 19 18 19 19 19 19 18 17 16 16 15 14 13 12 12 11 10 11 11 11 10 10 10 10 10 9 9 10 9 9 9 9 9 9 10 9 9 10 10 10 10 10 9 8 8
18 19 19 19 18 19 19 20 18 19 18 18 17 16 16 14 14 13 13 12 11 10 11 11 11 11 11 11 11 10 10 10 10 10 10 10 10 10 10 9 9 9 9 9 10 10 10 10 10
18 19 19 19 19 19 20 20 21 19 20 19 17 17 16 16 14 14 14 13 12 11 12 12 11 11 11 11 11 10 10 10 10 10 10 10 10 10 10 9 9 9 9 9 9 9 10 10 10
18 18 18 18 18 20 20 21 21 21 14 19 19 18 17 16 15 14 14 14 13 11 12 13 12 11 11 11 11 11 10 10 10 10 10 10 10 10 9 9 9 9 9 10 10 10 10 10 10
17 18 19 20 20 21 21 21 21 21 20 19 19 19 18 16 16 15 14 14 13 12 13 13 12 12 11 11 11 11 10 10 10 11 10 8 8 9 9 9 9 9 9 9 10 10 10 10 10
17 18 19 19 21 22 21 22 21 20 20 19 19 19 18 17 16 15 15 14 13 14 13 13 13 12 11 11 11 11 11 10 10 10 9 7 9 9 9 8 9 9 9 9 9 10 10 10 10
18 18 19 20 21 22 21 16 19 20 19 20 19 19 18 17 16 15 15 14 13 14 14 13 13 13 12 11 11 11 11 10 9 10 10 10 10 9 9 9 8 8 9 9 9 10 10 10 10
17 19 19 19 20 20 22 20 21 20 20 19 20 18 18 17 16 16 15 14 13 12 14 13 13 13 12 12 11 11 11 11 10 10 9 10 9 9 9 9 9 8 8 8 8 9 9 9 9
17 17 18 19 20 21 21 21 19 20 19 19 19 19 18 18 16 16 15 14 13 13 14 14 13 13 13 12 11 11 11 11 10 10 10 9 9 9 9 8 8 8 8 8 8 8 9 9 9
18 18 18 19 19 20 20 20 19 19 19 19 19 19 18 17 17 16 15 14 14 15 15 15 13 13 13 12 12 11 11 11 10 10 10 9 9 8 8 8 8 7 8 8 8 8 8 9 9